Clyde, Nunavut

2:50 AM AST on February 08, 2016 (GMT -0400)
Clyde River

Weather History for CYCY - October, 2012

Change the Weather History Date:

Wednesday, October 24, 2012

  Actual Average Record
Temperature  
Mean Temperature 26 °F -  
Max Temperature 28 °F 10 °F 37 °F (2003)
Min Temperature 23 °F -1 °F 1 °F (1999)
Degree Days  
Heating Degree Days 40    
Moisture  
Dew Point 24 °F    
Average Humidity 92    
Maximum Humidity 100    
Minimum Humidity 81    
Precipitation  
Precipitation 0.00 in 0.03 in - ()
Sea Level Pressure  
Sea Level Pressure 30.55 in    
Wind  
Wind Speed 20 mph ()    
Max Wind Speed 26 mph    
Max Gust Speed 31 mph    
Visibility 6.3 miles    
Events Rain , Snow    
Averages and records for this station are not official NWS values.
T = Trace of Precipitation, MM = Missing Value Source: Averaged Metar Reports

Daily Weather History Graph

Daily Weather History Graph

Search for Another Location

Airport or City:

Trip Planner

Search our weather history database for the weather conditions in past years. The results will help you decide how hot, cold, wet, or windy it might be!

Date:

Astronomy

Oct. 24, 2012 Rise Set
Actual Time 9:33 AM ADT 5:01 PM ADT
Civil Twilight 8:22 AM ADT 6:11 PM ADT
Nautical Twilight 7:09 AM ADT 7:24 PM ADT
Astronomical Twilight 5:56 AM ADT 8:37 PM ADT
Moon 4:37 PM ADT (10/24) 1:38 AM ADT (10/24)
Length of Visible Light 9h 48m
Length of Day
7h 28m
Waxing Gibbous, 75% of the Moon is Illuminated
Oct 24
Waxing Gibbous
Oct 29
Full
Nov 6
Last Quarter
Nov 13
New
Nov 20
First Quarter

Hourly Weather History & Observations

Time (ADT) Temp. Windchill Dew Point Humidity Pressure Visibility Wind Dir Wind Speed Gust Speed Precip Events Conditions
12:00 AM 24 °F - 21 °F 84% 30.59 in 9 mi NNW 20.7 mph - -   Overcast
12:00 AM 24.8 °F 10.0 °F 21.2 °F 86% 30.59 in 9.0 mi NNW 21.9 mph - N/A   Overcast
12:20 AM 24.8 °F 11.1 °F 21.2 °F 86% 30.58 in 9.0 mi NNW 18.4 mph - N/A   Overcast
1:00 AM 24.8 °F 11.1 °F 21.2 °F 86% 30.59 in 9.0 mi NNW 18.4 mph - N/A   Overcast
2:00 AM 24.8 °F 10.7 °F 23.0 °F 93% 30.59 in 9.0 mi NW 19.6 mph - N/A   Overcast
3:00 AM 24 °F - 22 °F 89% 30.59 in 9 mi NW 19.6 mph - -   Overcast
3:00 AM 24.8 °F 10.3 °F 23.0 °F 93% 30.59 in 9.0 mi NW 20.7 mph - N/A   Overcast
3:36 AM 24.8 °F 11.1 °F 23.0 °F 93% 30.58 in 6.0 mi NW 18.4 mph 27.6 mph N/A Snow Light Snow
3:41 AM 24.8 °F 9.6 °F 23.0 °F 93% 30.58 in 3.5 mi NW 23.0 mph - N/A   Light Freezing Drizzle
4:00 AM 24.8 °F 10.0 °F 23.0 °F 93% 30.59 in 4.0 mi NW 21.9 mph - N/A   Light Freezing Drizzle
4:08 AM 24.8 °F 10.0 °F 23.0 °F 93% 30.58 in 4.0 mi NW 21.9 mph 27.6 mph N/A   Light Freezing Drizzle
4:11 AM 24.8 °F 10.7 °F 23.0 °F 93% 30.58 in 4.0 mi NW 19.6 mph 27.6 mph N/A   Light Freezing Drizzle
4:20 AM 24.8 °F 9.3 °F 23.0 °F 93% 30.58 in 4.0 mi NW 24.2 mph - N/A   Light Freezing Drizzle
4:23 AM 24.8 °F 9.3 °F 23.0 °F 93% 30.58 in 3.5 mi NW 24.2 mph - N/A Snow Light Snow
4:37 AM 24.8 °F 9.6 °F 23.0 °F 93% 30.58 in 5.0 mi NW 23.0 mph - N/A Snow Light Snow
4:42 AM 24.8 °F 10.7 °F 23.0 °F 93% 30.58 in 6.0 mi NW 19.6 mph 25.3 mph N/A   Overcast
4:46 AM 24.8 °F 10.3 °F 23.0 °F 93% 30.58 in 6.0 mi NW 20.7 mph 29.9 mph N/A   Overcast
5:00 AM 24.8 °F 10.0 °F 23.0 °F 93% 30.59 in 7.0 mi NW 21.9 mph 28.8 mph N/A   Overcast
5:10 AM 24.8 °F 9.3 °F 23.0 °F 93% 30.58 in 5.0 mi NW 24.2 mph - N/A Snow Light Snow
5:13 AM 24.8 °F 8.7 °F 23.0 °F 93% 30.58 in 4.0 mi NW 26.5 mph - N/A Snow Light Snow
5:26 AM 23.0 °F 6.6 °F 23.0 °F 100% 30.58 in 3.5 mi NW 25.3 mph 31.1 mph N/A   Overcast
5:39 AM 24.8 °F 9.3 °F 23.0 °F 93% 30.58 in 4.0 mi NW 24.2 mph - N/A   Light Freezing Drizzle
5:49 AM 24.8 °F 9.3 °F 23.0 °F 93% 30.58 in 4.0 mi NW 24.2 mph - N/A   Light Freezing Drizzle
6:00 AM 24 °F - 22 °F 90% 30.60 in 3 mi NW 25.3 mph - - Rain Heavy Freezing Drizzle
6:06 AM 24.8 °F 9.0 °F 23.0 °F 93% 30.58 in 3.5 mi NW 25.3 mph - N/A   Light Freezing Drizzle
6:25 AM 24.8 °F 9.6 °F 23.0 °F 93% 30.58 in 5.0 mi NW 23.0 mph - N/A   Light Freezing Drizzle
6:28 AM 24.8 °F 9.6 °F 23.0 °F 93% 30.58 in 5.0 mi NW 23.0 mph - N/A   Light Freezing Drizzle
6:30 AM 24.8 °F 9.6 °F 23.0 °F 93% 30.58 in 5.0 mi NW 23.0 mph - N/A   Light Freezing Drizzle
6:50 AM 24.8 °F 9.0 °F 23.0 °F 93% 30.58 in 6.0 mi NW 25.3 mph - N/A   Overcast
6:51 AM 24.8 °F 9.3 °F 23.0 °F 93% 30.58 in 6.0 mi NW 24.2 mph - N/A   Overcast
7:00 AM 24.8 °F 10.0 °F 23.0 °F 93% 30.59 in 2.1 mi NW 21.9 mph 27.6 mph N/A   Overcast
7:02 AM 24.8 °F 9.6 °F 23.0 °F 93% 30.58 in 1.6 mi NW 23.0 mph - N/A   Unknown
7:03 AM 24.8 °F 10.0 °F 23.0 °F 93% 30.58 in 1.5 mi NW 21.9 mph 27.6 mph N/A   Unknown
7:04 AM 24.8 °F 11.1 °F 23.0 °F 93% 30.58 in 1.2 mi NW 18.4 mph 27.6 mph N/A   Unknown
7:09 AM 24.8 °F 9.3 °F 23.0 °F 93% 30.58 in 1.2 mi NW 24.2 mph - N/A Snow Light Snow
7:16 AM 24.8 °F 9.0 °F 23.0 °F 93% 30.58 in 3.0 mi NW 25.3 mph - N/A Snow Light Snow
7:18 AM 24.8 °F 9.3 °F 23.0 °F 93% 30.58 in 3.5 mi NW 24.2 mph 29.9 mph N/A Snow Light Snow
7:28 AM 24.8 °F 10.0 °F 23.0 °F 93% 30.58 in 3.0 mi NW 21.9 mph 28.8 mph N/A   Overcast
7:43 AM 24.8 °F 11.9 °F 23.0 °F 93% 30.58 in 9.0 mi NNW 16.1 mph 21.9 mph N/A   Overcast
7:59 AM 24.8 °F 9.6 °F 23.0 °F 93% 30.58 in 7.0 mi NW 23.0 mph - N/A   Unknown
8:00 AM 24.8 °F 9.3 °F 23.0 °F 93% 30.59 in 6.0 mi NW 24.2 mph - N/A   Unknown
8:18 AM 24.8 °F 10.7 °F 24.8 °F 100% 30.57 in 2.5 mi NW 19.6 mph 28.8 mph N/A   Unknown
8:38 AM 26.6 °F 12.7 °F 23.0 °F 86% 30.58 in 9.0 mi NNW 20.7 mph - N/A   Overcast
9:00 AM 27 °F - 24 °F 82% 30.58 in 9 mi NNW 18.4 mph - -   Overcast
9:00 AM 26.6 °F 12.7 °F 23.0 °F 86% 30.58 in 9.0 mi NNW 20.7 mph - N/A   Overcast
9:17 AM 26.6 °F 12.7 °F 24.8 °F 93% 30.57 in 8.0 mi NNW 20.7 mph - N/A Snow Light Snow
9:22 AM 26.6 °F 12.0 °F 24.8 °F 93% 30.57 in 6.0 mi NW 23.0 mph - N/A   Overcast
9:25 AM 26.6 °F 12.7 °F 24.8 °F 93% 30.57 in 4.0 mi NNW 20.7 mph - N/A Snow Light Snow
9:27 AM 26.6 °F 11.7 °F 24.8 °F 93% 30.57 in 4.0 mi NNW 24.2 mph - N/A Snow Light Snow
9:28 AM 26.6 °F 12.0 °F 24.8 °F 93% 30.57 in 3.5 mi NNW 23.0 mph - N/A Snow Light Snow
9:32 AM 26.6 °F 11.7 °F 24.8 °F 93% 30.57 in 3.5 mi NNW 24.2 mph - N/A   Overcast
9:38 AM 26.6 °F 11.4 °F 24.8 °F 93% 30.57 in 4.0 mi NNW 25.3 mph - N/A   Overcast
9:48 AM 26.6 °F 12.4 °F 24.8 °F 93% 30.57 in 2.5 mi NW 21.9 mph 29.9 mph N/A   Overcast
9:49 AM 26.6 °F 12.4 °F 24.8 °F 93% 30.57 in 2.4 mi NW 21.9 mph 29.9 mph N/A Snow Light Snow
11:00 AM 26.6 °F 13.8 °F 24.8 °F 93% 30.57 in 10.0 mi NNW 17.3 mph - N/A Snow Light Snow
12:00 PM 27 °F - 24 °F 81% 30.55 in 9 mi NNW 19.6 mph - -   Overcast
12:00 PM 26.6 °F 13.1 °F 23.0 °F 86% 30.55 in 10.0 mi NNW 19.6 mph - N/A Snow Light Snow
1:00 PM 26.6 °F 13.1 °F 24.8 °F 93% 30.55 in 10.0 mi NNW 19.6 mph - N/A Snow Light Snow
2:00 PM 26.6 °F 13.4 °F 23.0 °F 86% 30.54 in 10.0 mi NNW 18.4 mph 24.2 mph N/A Snow Light Snow
3:00 PM 27 °F - 24 °F 82% 30.53 in 9 mi NNW 17.3 mph - -   Overcast
3:00 PM 26.6 °F 13.8 °F 23.0 °F 86% 30.53 in 10.0 mi NNW 17.3 mph - N/A Snow Light Snow
4:00 PM 26.6 °F 13.4 °F 24.8 °F 93% 30.52 in 10.0 mi NW 18.4 mph - N/A Snow Light Snow
5:00 PM 26.6 °F 12.7 °F 24.8 °F 93% 30.50 in 10.0 mi NNW 20.7 mph - N/A Snow Light Snow
6:00 PM 28 °F - 25 °F 84% 30.48 in 9 mi NNW 21.9 mph - -   Overcast
7:00 PM 26.6 °F 11.4 °F 24.8 °F 93% 30.46 in 10.0 mi NNW 25.3 mph - N/A Snow Light Snow
8:00 PM 26.6 °F 12.4 °F 24.8 °F 93% 30.45 in 10.0 mi NNW 21.9 mph - N/A Snow Light Snow
8:28 PM 26.6 °F 12.4 °F 24.8 °F 93% 30.43 in 9.0 mi NNW 21.9 mph - N/A   Overcast
9:00 PM 27 °F - 25 °F 91% 30.44 in 9 mi NNW 23.0 mph - -   Overcast
9:00 PM 26.6 °F 12.4 °F 24.8 °F 93% 30.44 in 9.0 mi NNW 21.9 mph - N/A   Overcast
9:41 PM 26.6 °F 12.7 °F 24.8 °F 93% 30.41 in 9.0 mi NNW 20.7 mph - N/A   Overcast
9:44 PM 26.6 °F 12.0 °F 24.8 °F 93% 30.41 in 9.0 mi NNW 23.0 mph - N/A   Overcast
10:00 PM 26.6 °F 12.4 °F 24.8 °F 93% 30.42 in 9.0 mi NNW 21.9 mph - N/A   Overcast
10:29 PM 26.6 °F 12.7 °F 24.8 °F 93% 30.40 in 9.0 mi NNW 20.7 mph - N/A   Overcast
10:59 PM 26.6 °F 13.1 °F 24.8 °F 93% 30.40 in 9.0 mi NNW 19.6 mph - N/A   Overcast